Precipitable_Water
1.80 1.80 1.82 1.85 1.82 1.77 1.74 1.71 1.72 1.73 1.76 1.83 1.81 1.83 1.82 1.84 1.89 1.84 1.81 1.82 1.80 1.75 1.71 1.65 1.63 1.60 1.50 1.37 1.32 1.39 1.56 1.63 1.62 1.61 1.59 1.58 1.56 1.58 1.58 1.58 1.57 1.55
1.78 1.80 1.84 1.88 1.91 1.87 1.81 1.79 1.75 1.72 1.72 1.76 1.80 1.84 1.87 1.87 1.87 1.88 1.85 1.82 1.80 1.76 1.70 1.64 1.60 1.57 1.51 1.36 1.31 1.40 1.57 1.62 1.58 1.65 1.60 1.58 1.59 1.62 1.61 1.62 1.60 1.61
1.79 1.76 1.76 1.79 1.84 1.90 1.87 1.84 1.81 1.79 1.75 1.77 1.81 1.81 1.83 1.87 1.87 1.88 1.87 1.84 1.82 1.80 1.74 1.67 1.63 1.57 1.52 1.44 1.40 1.46 1.57 1.62 1.59 1.64 1.62 1.59 1.62 1.62 1.63 1.64 1.63 1.62
1.81 1.80 1.79 1.81 1.85 1.88 1.95 1.89 1.85 1.84 1.82 1.79 1.79 1.82 1.82 1.84 1.86 1.87 1.86 1.87 1.85 1.83 1.79 1.71 1.65 1.63 1.57 1.51 1.48 1.49 1.57 1.65 1.66 1.66 1.63 1.62 1.62 1.62 1.63 1.63 1.61 1.63
1.81 1.81 1.82 1.85 1.87 1.89 1.94 1.91 1.86 1.86 1.83 1.83 1.86 1.88 1.87 1.86 1.85 1.84 1.84 1.85 1.86 1.85 1.82 1.76 1.70 1.67 1.64 1.56 1.51 1.47 1.55 1.63 1.70 1.69 1.63 1.60 1.62 1.63 1.63 1.60 1.56 1.56
1.84 1.86 1.86 1.85 1.85 1.85 1.85 1.86 1.88 1.87 1.85 1.83 1.82 1.87 1.87 1.89 1.87 1.86 1.85 1.83 1.85 1.85 1.84 1.82 1.78 1.73 1.72 1.64 1.53 1.46 1.48 1.57 1.67 1.70 1.63 1.59 1.62 1.65 1.62 1.58 1.53 1.52
1.80 1.83 1.80 1.83 1.85 1.86 1.84 1.86 1.88 1.89 1.88 1.88 1.87 1.80 1.81 1.83 1.86 1.88 1.88 1.88 1.88 1.87 1.85 1.83 1.81 1.78 1.77 1.74 1.63 1.48 1.44 1.50 1.64 1.70 1.64 1.61 1.64 1.65 1.64 1.58 1.52 1.50
1.81 1.86 1.86 1.84 1.82 1.84 1.84 1.87 1.87 1.85 1.87 1.88 1.83 1.84 1.83 1.80 1.81 1.85 1.89 1.89 1.88 1.88 1.89 1.87 1.83 1.81 1.80 1.77 1.71 1.61 1.48 1.47 1.53 1.62 1.62 1.61 1.63 1.62 1.62 1.59 1.54 1.48
1.83 1.84 1.87 1.84 1.80 1.81 1.82 1.85 1.88 1.88 1.88 1.82 1.83 1.85 1.88 1.84 1.82 1.82 1.85 1.87 1.87 1.88 1.88 1.88 1.87 1.84 1.82 1.77 1.73 1.70 1.62 1.52 1.48 1.49 1.54 1.56 1.57 1.58 1.58 1.60 1.54 1.47
1.77 1.81 1.81 1.82 1.78 1.79 1.79 1.83 1.87 1.88 1.90 1.86 1.84 1.85 1.83 1.86 1.85 1.81 1.81 1.82 1.84 1.86 1.87 1.86 1.86 1.86 1.85 1.82 1.77 1.72 1.70 1.66 1.59 1.51 1.48 1.51 1.54 1.57 1.59 1.58 1.55 1.50
1.70 1.74 1.74 1.74 1.74 1.77 1.77 1.81 1.85 1.88 1.90 1.88 1.87 1.83 1.82 1.81 1.83 1.84 1.80 1.80 1.78 1.80 1.84 1.85 1.85 1.84 1.82 1.83 1.84 1.80 1.74 1.71 1.69 1.64 1.56 1.50 1.51 1.56 1.61 1.61 1.61 1.57
1.66 1.69 1.69 1.71 1.74 1.77 1.79 1.82 1.85 1.87 1.88 1.89 1.88 1.84 1.83 1.81 1.78 1.79 1.78 1.76 1.78 1.78 1.79 1.82 1.85 1.83 1.80 1.79 1.81 1.84 1.81 1.76 1.72 1.71 1.68 1.62 1.54 1.53 1.57 1.63 1.63 1.61
1.59 1.63 1.67 1.69 1.73 1.75 1.79 1.81 1.82 1.85 1.87 1.85 1.89 1.86 1.82 1.79 1.79 1.78 1.80 1.78 1.79 1.83 1.81 1.80 1.82 1.85 1.82 1.79 1.75 1.74 1.80 1.84 1.79 1.73 1.72 1.72 1.68 1.62 1.58 1.61 1.65 1.64
1.55 1.58 1.60 1.62 1.67 1.71 1.73 1.75 1.77 1.78 1.79 1.82 1.83 1.79 1.78 1.76 1.74 1.73 1.76 1.79 1.79 1.82 1.86 1.88 1.86 1.86 1.85 1.81 1.76 1.72 1.71 1.73 1.81 1.81 1.75 1.72 1.72 1.71 1.68 1.64 1.64 1.65
1.52 1.55 1.55 1.55 1.56 1.58 1.60 1.62 1.65 1.67 1.70 1.73 1.75 1.74 1.74 1.74 1.75 1.74 1.73 1.74 1.78 1.81 1.85 1.90 1.89 1.88 1.88 1.85 1.80 1.76 1.75 1.73 1.76 1.84 1.86 1.77 1.72 1.72 1.73 1.71 1.67 1.63
1.46 1.50 1.52 1.52 1.50 1.49 1.51 1.55 1.59 1.62 1.66 1.70 1.73 1.76 1.77 1.79 1.79 1.80 1.78 1.74 1.73 1.76 1.80 1.84 1.85 1.87 1.88 1.91 1.91 1.89 1.88 1.86 1.83 1.85 1.90 1.91 1.86 1.79 1.75 1.76 1.74 1.68
1.40 1.44 1.49 1.50 1.54 1.56 1.58 1.60 1.62 1.65 1.67 1.69 1.73 1.76 1.78 1.79 1.79 1.75 1.74 1.74 1.73 1.73 1.74 1.78 1.80 1.79 1.79 1.83 1.86 1.92 1.98 1.99 1.96 1.93 1.95 1.95 1.93 1.83 1.76 1.79 1.79 1.76
1.38 1.43 1.46 1.49 1.52 1.53 1.56 1.60 1.62 1.62 1.63 1.67 1.71 1.74 1.76 1.78 1.74 1.73 1.74 1.76 1.76 1.76 1.76 1.78 1.81 1.85 1.84 1.82 1.82 1.83 1.90 1.96 1.97 1.96 2.01 2.00 1.98 1.98 1.88 1.83 1.83 1.79
1.38 1.40 1.43 1.46 1.48 1.51 1.54 1.56 1.57 1.60 1.62 1.64 1.65 1.69 1.70 1.68 1.68 1.70 1.72 1.79 1.81 1.78 1.76 1.77 1.79 1.83 1.84 1.83 1.85 1.88 1.89 1.89 1.89 2.00 1.99 1.99 1.99 1.98 1.97 1.90 1.86 1.83
1.36 1.37 1.38 1.42 1.46 1.48 1.50 1.51 1.54 1.55 1.60 1.64 1.65 1.67 1.65 1.62 1.63 1.64 1.70 1.73 1.75 1.74 1.73 1.74 1.76 1.80 1.82 1.82 1.82 1.86 1.93 1.95 1.94 1.88 1.97 2.00 1.99 2.01 2.02 2.00 2.00 1.90
1.34 1.34 1.35 1.40 1.45 1.46 1.46 1.46 1.48 1.53 1.57 1.61 1.61 1.59 1.57 1.56 1.57 1.59 1.65 1.70 1.73 1.75 1.73 1.73 1.76 1.81 1.81 1.81 1.80 1.83 1.94 2.02 2.02 1.94 1.91 1.99 2.03 2.03 2.04 2.00 1.99 2.00
1.30 1.33 1.38 1.43 1.45 1.46 1.46 1.47 1.50 1.53 1.53 1.58 1.56 1.54 1.56 1.57 1.58 1.61 1.62 1.66 1.72 1.75 1.75 1.73 1.78 1.83 1.86 1.85 1.84 1.89 2.03 2.04 2.05 1.99 1.90 1.90 1.97 2.01 2.02 2.05 2.08 2.05
1.31 1.34 1.41 1.46 1.48 1.50 1.53 1.48 1.45 1.47 1.51 1.56 1.50 1.49 1.47 1.48 1.50 1.54 1.60 1.64 1.70 1.76 1.76 1.75 1.82 1.95 2.01 1.99 1.94 1.99 2.12 2.09 2.04 2.00 1.96 1.90 1.90 2.04 2.09 2.07 2.08 2.11
1.34 1.36 1.39 1.47 1.51 1.45 1.46 1.48 1.48 1.48 1.48 1.53 1.45 1.40 1.38 1.42 1.48 1.51 1.57 1.64 1.69 1.73 1.77 1.76 1.85 1.98 2.04 2.05 2.02 2.08 2.11 2.08 2.04 2.00 1.99 1.93 1.91 1.97 2.04 2.06 2.12 2.14
1.35 1.36 1.37 1.40 1.42 1.43 1.44 1.43 1.45 1.44 1.48 1.50 1.47 1.44 1.41 1.44 1.49 1.50 1.54 1.60 1.69 1.76 1.80 1.78 1.80 1.91 2.01 2.05 2.06 2.07 2.08 2.09 2.09 2.04 1.98 2.01 2.02 1.99 2.04 2.06 2.10 2.17
1.39 1.36 1.34 1.33 1.33 1.40 1.50 1.49 1.49 1.48 1.46 1.46 1.46 1.45 1.41 1.42 1.45 1.49 1.50 1.54 1.67 1.74 1.77 1.78 1.78 1.87 1.98 2.01 2.05 2.05 2.07 2.09 2.09 2.05 2.02 2.03 2.04 2.03 2.02 2.05 2.08 2.11
Wind_Speed
16 16 16 15 15 16 16 16 16 16 17 17 17 17 18 18 18 19 19 19 18 18 19 19 18 18 17 17 17 18 17 17 17 16 16 16 16 16 16 16 15 15
17 17 16 16 16 16 16 16 16 17 17 18 18 18 18 18 18 19 19 19 19 19 19 19 19 18 18 18 18 18 18 18 18 17 17 17 17 17 16 16 16 16
17 17 17 17 17 16 16 16 17 17 18 18 18 18 18 18 18 19 19 19 19 20 20 20 20 19 19 19 19 19 19 19 18 18 18 18 18 18 17 17 17 16
17 17 17 18 18 17 17 17 17 18 18 19 19 19 19 19 19 19 19 20 20 20 20 21 21 21 20 20 20 20 20 19 19 18 18 18 18 18 18 18 17 17
16 17 17 18 18 18 18 18 18 18 18 19 19 19 20 20 20 20 20 20 21 21 21 21 22 22 21 21 21 21 21 20 20 20 19 19 19 19 19 19 18 18
16 16 17 18 18 19 19 19 19 19 19 19 20 20 21 21 21 21 21 21 21 21 22 22 22 22 22 22 23 23 22 22 22 21 21 20 20 20 20 20 20 19
15 16 17 18 19 19 19 19 19 19 19 19 20 20 21 21 22 22 22 22 22 22 22 23 23 23 23 23 23 24 24 23 23 23 22 22 21 21 21 21 21 21
15 15 16 17 18 19 19 19 20 20 20 20 20 20 21 21 22 23 23 23 23 23 23 24 24 24 24 24 24 25 25 25 24 24 24 23 23 22 22 22 22 22
14 15 15 16 17 18 19 19 20 20 20 20 21 21 21 21 22 22 23 23 24 24 24 24 25 26 25 25 25 25 26 26 26 26 25 25 24 24 23 23 23 23
13 14 15 16 16 17 18 19 20 20 20 21 21 22 22 22 22 23 23 24 24 25 25 25 25 26 27 27 27 27 27 27 27 27 27 26 26 25 25 24 24 24
12 13 14 15 16 17 18 19 19 20 20 21 21 22 23 23 23 24 24 24 25 25 26 26 26 26 27 28 28 28 28 28 28 28 28 28 27 27 27 26 26 25
12 13 14 15 16 16 17 18 19 20 20 21 21 22 23 23 24 24 25 25 26 26 27 27 27 27 27 28 29 29 29 29 29 29 29 29 29 28 28 28 27 27
12 12 13 14 15 16 17 18 18 19 20 20 21 21 22 23 24 24 25 26 26 27 28 28 28 28 28 28 29 30 30 30 30 30 30 30 30 30 29 29 29 28
11 12 13 14 14 15 16 17 18 19 19 20 20 21 22 23 24 24 25 26 26 27 28 29 30 30 30 30 30 31 31 31 32 32 31 31 31 31 30 30 30 30
11 12 13 13 14 15 15 16 17 18 18 19 20 21 21 22 23 24 25 26 27 28 28 29 30 31 32 32 32 32 33 33 33 33 33 33 32 32 32 31 31 31
11 12 12 13 13 14 15 15 16 17 17 18 19 20 20 21 22 23 25 26 27 28 28 29 30 31 33 34 35 35 35 35 34 34 35 34 34 33 33 33 32 32
11 12 12 12 13 13 14 15 15 16 16 17 18 18 19 20 21 23 24 25 26 27 28 29 30 31 33 35 36 37 37 37 37 36 36 36 36 35 35 34 34 33
11 12 12 12 12 13 14 14 15 15 16 17 17 18 19 20 21 22 23 24 26 27 28 29 30 32 33 35 36 37 38 38 38 39 39 38 38 37 37 36 35 34
11 11 12 12 12 13 13 14 14 15 16 17 17 18 19 20 21 22 23 24 25 26 28 29 31 32 34 35 36 38 38 38 38 39 40 39 39 39 38 37 37 36
11 11 12 12 12 13 13 14 15 15 16 17 17 18 19 19 20 21 22 23 24 26 27 29 30 32 34 35 36 38 39 39 38 38 39 40 40 39 38 38 37 37
11 11 11 12 12 13 13 14 15 15 16 16 17 17 18 19 19 20 21 22 23 25 26 28 29 31 33 34 35 37 38 39 38 38 39 40 41 40 39 38 38 38
11 11 11 12 12 13 13 14 15 15 15 16 16 17 17 18 18 19 20 21 22 23 25 26 28 30 31 32 34 35 36 37 38 37 38 39 40 40 40 39 38 38
11 11 12 12 12 13 14 14 15 15 15 15 16 16 17 17 18 18 19 20 21 22 23 24 25 26 28 29 30 31 33 34 36 36 36 37 39 39 39 39 38 39
11 12 12 13 13 13 14 14 14 15 15 15 15 16 16 16 17 17 18 19 19 20 21 22 22 23 24 25 26 27 29 31 33 34 35 35 36 37 38 38 38 38
12 12 12 13 13 14 14 14 14 14 15 15 15 15 15 15 16 16 17 17 18 18 19 20 20 20 21 22 23 25 27 29 31 32 33 34 35 36 37 37 38 38
13 13 13 13 13 14 14 14 14 14 14 15 15 15 15 15 15 15 16 16 16 17 17 17 18 18 18 20 21 23 25 28 29 31 32 33 35 36 36 37 38 38
Wind_Direction
223 221 219 219 221 221 220 220 218 216 215 213 212 212 212 213 213 213 213 213 214 214 214 215 216 216 216 216 215 216 218 220 219 217 215 214 214 214 215 215 215 214
223 222 221 220 220 221 221 221 220 219 218 217 216 216 215 216 217 217 218 218 217 217 217 217 218 219 218 218 217 217 219 221 221 220 218 217 216 216 216 216 217 216
223 223 223 222 221 221 222 222 221 221 221 220 219 219 219 219 220 220 221 221 221 221 220 219 220 221 221 220 219 219 221 222 222 221 220 220 219 218 218 218 218 218
223 223 224 224 222 222 222 222 222 222 222 222 222 221 222 222 222 222 222 223 224 225 224 223 223 224 224 223 221 221 222 223 223 222 222 222 222 221 220 221 221 219
223 224 225 225 224 223 223 223 224 224 224 224 224 224 224 224 225 224 224 224 225 226 227 226 226 226 227 226 225 223 223 224 225 223 223 224 224 223 223 223 223 222
224 225 226 226 225 224 225 225 226 227 227 227 227 227 227 227 228 227 226 226 226 227 228 229 228 228 228 229 228 226 225 225 225 225 224 225 226 226 225 224 224 223
227 227 227 227 227 227 227 227 228 228 228 229 229 229 229 229 230 230 229 229 229 229 229 230 230 230 229 230 229 229 228 227 227 226 226 226 227 227 227 226 225 224
228 228 228 228 229 229 229 229 230 230 230 230 231 231 232 232 232 232 231 231 232 232 231 231 231 231 231 230 230 230 230 229 228 228 228 227 227 228 228 227 226 225
229 229 229 229 230 231 231 231 231 231 231 232 233 234 234 235 235 234 234 234 234 234 234 233 233 233 232 232 232 231 231 230 230 230 230 229 228 228 229 228 227 226
229 230 230 230 231 232 232 232 233 233 234 234 235 236 236 236 236 236 236 236 236 235 234 234 234 234 234 234 234 233 233 232 231 231 231 230 230 229 229 229 228 227
230 230 231 231 232 233 233 234 235 236 237 237 237 237 238 238 239 239 239 239 238 237 236 235 235 235 235 235 235 235 234 233 232 232 231 231 231 231 230 230 230 229
234 234 234 233 234 235 236 237 237 238 239 240 240 240 240 241 241 241 241 240 240 239 238 238 237 236 236 236 236 236 235 234 233 233 233 232 232 231 231 231 231 231
240 240 239 238 238 239 239 240 240 240 241 241 242 243 243 243 242 242 242 242 242 241 241 240 239 238 238 238 238 237 236 235 234 234 234 234 234 233 232 232 232 232
243 244 243 242 241 241 242 242 242 242 243 243 243 244 244 245 244 244 244 244 244 244 243 242 241 241 240 240 239 238 237 236 235 234 234 234 234 234 234 233 232 232
246 247 246 245 245 244 244 244 244 244 244 244 245 245 246 246 246 246 246 247 247 246 246 245 243 243 242 242 241 240 239 238 237 235 234 234 234 234 234 234 233 233
248 247 247 247 247 247 247 246 245 245 245 246 247 247 248 248 248 248 249 249 249 248 248 247 246 245 245 244 243 242 241 239 238 237 235 234 234 234 234 234 234 234
250 249 247 246 247 248 247 246 245 245 246 248 249 250 251 252 252 252 251 251 250 250 250 249 249 248 247 246 245 243 242 241 239 238 236 235 234 234 234 234 234 234
253 251 248 247 247 246 245 244 245 247 249 251 252 254 255 256 257 256 256 255 254 253 252 252 252 251 250 248 247 245 244 242 241 239 237 236 235 234 234 234 234 234
254 252 250 250 249 247 246 246 248 250 252 254 256 257 259 260 260 260 260 259 258 257 256 255 255 254 252 250 248 246 244 243 241 238 236 235 234 234 233 234 234 233
256 254 252 251 251 250 250 251 252 253 255 257 259 261 261 262 262 263 264 263 263 262 261 260 259 258 256 253 250 247 243 242 240 238 235 233 233 233 233 233 233 232
258 257 255 254 253 253 253 254 255 256 258 260 262 263 263 264 265 266 267 267 267 267 266 265 263 261 258 255 251 247 243 240 238 237 235 233 232 232 233 233 232 231
261 260 258 257 256 255 256 257 258 260 261 263 264 265 266 267 267 269 270 271 271 271 271 270 268 265 261 255 251 247 243 239 236 235 234 233 232 231 232 232 232 230
265 263 261 260 260 259 259 259 261 262 263 265 266 268 269 269 270 272 273 274 274 274 274 274 273 269 262 254 249 246 242 236 233 233 233 232 231 230 230 231 231 229
267 265 264 263 263 262 261 261 262 263 264 265 267 269 271 273 274 275 276 278 278 277 277 276 275 271 261 253 248 244 239 234 231 231 231 230 229 228 229 230 229 229
267 266 266 266 266 264 263 263 264 265 266 267 268 270 272 274 277 279 280 281 281 281 280 279 277 271 261 253 248 243 238 234 231 231 230 229 229 228 229 229 228 228
266 265 265 266 267 267 266 266 266 267 268 268 269 270 272 274 277 279 282 284 285 286 284 281 279 274 262 253 249 243 238 234 232 231 231 230 229 229 229 229 227 227